Regional Weather Roundup
Issued by NWS

Home | Current Version | Previous Version | Text Only | Print | Product List | Glossary On
Versions: 1 2 3 4 5 6 7 8 9 10 11 12 13 14 15 16 17 18 19 20 21 22 23 24 25 26 27 28 29 30 31 32 33 34 35 36 37 38 39 40 41 42 43 44 45 46 47 48
000
ASUS43 KMPX 132310
RWRMN
WEATHER ROUNDUP FOR MINNESOTA
NATIONAL WEATHER SERVICE TWIN CITIES/CHANHASSEN MN
600 PM CDT THU AUG 13 2020


NOTE: "FAIR" INDICATES FEW OR NO CLOUDS BELOW 12,000 FEET WITH NO
SIGNIFICANT WEATHER AND/OR OBSTRUCTIONS TO VISIBILITY. N/A MEANS
CURRENT SKY AND/OR WEATHER CONDITIONS ARE NOT AVAILABLE.

MNZ060>063-068>070-140000-
   Twin Cities Metro

CITY           SKY/WX    TMP DP  RH WIND       PRES   REMARKS
TWIN CITIES    PTSUNNY   86  72  62 S15       29.95F HX  92
ST PAUL        MOSUNNY   87  72  60 S10G18    29.95F HX  93
CRYSTAL        MOSUNNY   87  71  58 S16G23    29.93F HX  93
BLAINE         MOSUNNY   88  72  58 S15G23    29.94F HX  94
LAKEVILLE      MOSUNNY   84  66  54 SE7       29.97S
EDEN PRAIRIE   SUNNY     86  71  60 S16       29.94S HX  91
SOUTH ST PAUL  MOSUNNY   87  70  56 S12G17    29.95F HX  91
LAKE ELMO      FAIR      82  72  69 S12       29.98S
$$
MNZ001>005-007-008-013>017-022>024-027-028-140000-
   Northwest Minnesota

CITY           SKY/WX    TMP DP  RH WIND       PRES   REMARKS
BEMIDJI        CLOUDY    78  72  82 SE12      29.88S
HALLOCK        PTSUNNY   79  73  83 NE6       29.83R
ROSEAU         MOSUNNY   81 N/A N/A SE9       29.84F
WARROAD        MOSUNNY   79  73  83 S9        29.86S
THIEF RVR FALL LGT RAIN  78  72  81 E9        29.83F
CROOKSTON      CLOUDY    82  75  78 E8        29.79F
FOSSTON        PTSUNNY   79  72  78 S8        29.83F THUNDER
DETROIT LAKES    N/A     86  72  62 S15G24    29.85F HX  92
MOORHEAD       MOSUNNY   90  70  51 S15G21    29.79S THUNDER HX  95
PARK RAPIDS    MOSUNNY   85  71  63 S15       29.89R HX  90
MAHNOMEN       MOCLDY    82  74  77 S8        29.81F THUNDER
$$
MNZ006-009>011-018-025>026-140000-
   North Central Minnesota

CITY           SKY/WX    TMP DP  RH WIND       PRES   REMARKS
BAUDETTE       PTSUNNY   76  69  79 SE14G22   29.89F
FLAG ISLAND      N/A     73  68  83 S5        29.87S
INTL FALLS     CLOUDY    74  66  76 SE8       29.94R
WASKISH          N/A     77  70  78 SE6G16    29.89S
BIG FORK       PTSUNNY   75  68  78 SE6       29.99F
LONGVILLE      PTSUNNY   79  72  78 SE12G17   29.92S
GRAND RAPIDS   MOSUNNY   79  72  79 SE10      29.97R
CRANE LAKE     PTSUNNY   75  66  73 S10G16    29.99S
ORR            CLOUDY    72  64  78 SE6       29.96S
COOK           CLOUDY    72  66  83 SE7       29.98S
WALKER         CLOUDY    78  73  86 SE5       29.90S
$$
MNZ012-019>021-037-140000-
   Northeast Minnesota

CITY           SKY/WX    TMP DP  RH WIND       PRES   REMARKS
DULUTH         PTSUNNY   72  66  81 E12       30.00S
ELY            CLOUDY    72  63  73 SE13G21   30.01F
HIBBING        CLOUDY    71  67  87 SE6       29.98S
EVELETH        CLOUDY    73  67  82 SE5       30.01R
DULUTH HARBOR  MOSUNNY   66  63  88 NE17      29.98F
TWO HARBORS    MOSUNNY   72  57  60 NE9       30.00F
SILVER BAY       N/A     70  57  64 NE7       30.02F
GRAND MARAIS     N/A     69  59  70 NE13      30.03F
G MARAIS ARPRT MOSUNNY   72  57  60 E5        30.08F
$$
MNZ029>031-032-039>041-046>048-054>057-064-140000-
   West Central Minnesota

CITY           SKY/WX    TMP DP  RH WIND       PRES   REMARKS
FERGUS FALLS   SUNNY     86  75  70 S15       29.83S HX  95
WHEATON        SUNNY     88  72  58 S10       29.84S HX  94
MORRIS         SUNNY     86  70  58 S15       29.87F HX  90
ALEXANDRIA     MOSUNNY   84  73  69 S16       29.91S HX  90
ELBOW LAKE     FAIR      85  75  71 S18G25    29.86S HX  94
WADENA         CLOUDY    82  73  74 S9        29.89R
GLENWOOD       MOSUNNY   86  73  66 S15       29.91S HX  93
APPLETON       SUNNY     90  70  51 S8        29.86S HX  95
BENSON         SUNNY     86  73  66 S12       29.89R HX  93
ORTONVILLE     SUNNY     88  73  62 S13G18    29.85S HX  96
MADISON        SUNNY     88  73  62 S15       29.87R HX  96
WILLMAR        FAIR      88  72  58 S9        29.93R HX  94
$$
MNZ033>034-036-042>043-049>051-058-059-140000-
   Central Minnesota

CITY           SKY/WX    TMP DP  RH WIND       PRES   REMARKS
ST CLOUD       MOSUNNY   84  74  71 S14G22    29.92S HX  91
SAUK CENTRE    MOCLDY    85  74  69 S13G20    29.91S HX  92
PAYNESVILLE    SUNNY     86  75  69 S10G18    29.92S HX  94
AITKIN         SUNNY     81  70  69 S15       29.93S
PINE RIVER     MOSUNNY   81  73  78 S9        29.94F
BRAINERD       PTSUNNY   85  72  65 S13G21    29.92S HX  91
STAPLES        MOSUNNY   82  72  69 S10       29.90F
LONG PRAIRIE   PTSUNNY   82  73  74 S13G20    29.92R
LITTLE FALLS   MOSUNNY   82  73  74 S10       29.92S
CAMP RIPLEY    FAIR      84  74  70 SE15      29.92S HX  91
LITCHFIELD     SUNNY     88  73  62 SE7       29.92S HX  96
BUFFALO        SUNNY     85  72  63 MISG      29.94S HX  91
MAPLE LAKE       N/A     86  75  70 S6        29.94S HX  94
HUTCHINSON     PTSUNNY   86  74  67 SE8       29.94S HX  95
$$
MNZ037-044-045-052-053-140000-
   East Central Minnesota

CITY           SKY/WX    TMP DP  RH WIND       PRES   REMARKS
PRINCETON      SUNNY     86  73  66 S9        29.94S HX  93
MORA           MOSUNNY   86  72  62 SW10      29.97R HX  92
CAMBRIDGE      SUNNY     90  72  55 S9        29.94S HX  96
RUSH CITY      PTSUNNY   82  71  69 SE8       29.95S
MOOSE LAKE     MOSUNNY   82  70  65 CALM      29.95F
HINCKLEY       MOCLDY    84  73  70 SE6       29.96R HX  91
CLOQUET        MOSUNNY   70  63  78 E7        30.00R
MCGREGOR       MOSUNNY   82  72  69 S10       29.95F
$$
MNZ071>073-080-081-089-090-097-098-140000-
   Southwest Minnesota

CITY           SKY/WX    TMP DP  RH WIND       PRES   REMARKS
MONTEVIDEO     SUNNY     86  70  58 SW8       29.88S HX  90
GRANITE FALLS  SUNNY     88  75  65 SE10G18   29.90S HX  97
CANBY          SUNNY     87  70  56 S10G21    29.89R HX  92
MARSHALL       SUNNY     86  72  62 S17       29.89S HX  92
REDWOOD FALLS  SUNNY     86  70  58 S13       29.90S HX  90
OLIVIA         SUNNY     86  72  62 S10G17    29.91R HX  92
PIPESTONE        N/A     84  72  65 S16       29.93R
WINDOM         SUNNY     86  72  62 SE8G18    29.94S HX  92
WORTHINGTON    SUNNY     84  72  67 S13       29.95S
JACKSON        SUNNY     86  70  58 S13       29.96F HX  90
TRACY          SUNNY     86  68  55 S10G17    29.91S
SLAYTON        SUNNY     84  67  57 S10G18    29.94S
$$
MNZ065>067-074>077-082>085-091>093-140000-
   South Central Minnesota

CITY           SKY/WX    TMP DP  RH WIND       PRES   REMARKS
MANKATO        MOSUNNY   85  75  72 S9        29.96S HX  93
NEW ULM        SUNNY     84  72  65 S14       29.93S
ST JAMES         N/A     84  70  61 S9        29.94S
FAIRMONT       SUNNY     87  72  60 S10       29.96F HX  93
GLENCOE        SUNNY     86  74  68 SE9G17    29.93S HX  94
FARIBAULT      SUNNY     84  73  70 S12       29.99R HX  91
OWATONNA       MOSUNNY   84  73  70 SE10G16   29.99S HX  91
ALBERT LEA     SUNNY     84  72  65 S12       30.00S
$$
MNZ078>079-086>088-094>096-140000-
   Southeast Minnesota

CITY           SKY/WX    TMP DP  RH WIND       PRES   REMARKS
ROCHESTER      SUNNY     83  70  64 S13       30.02F
RED WING       MOSUNNY   84  72  65 S8        29.97S
STANTON        SUNNY     85  72  63 S12       29.97R HX  91
DODGE CENTER   SUNNY     82  70  65 S10       30.02S
WINONA         MOSUNNY   86  72  62 S5        30.01S HX  92
AUSTIN         SUNNY     84  72  65 S9        30.02R
PRESTON        MOSUNNY   82  70  66 S9        30.04S
$$
ABBREVIATIONS USED IN REMARKS
   TC - TEMPERATURES IN CELSIUS
  WCI - WIND CHILL INDEX
   HX - HEAT INDEX
  VSB - VISIBILITY
$$



USA.gov is the U.S. government's official web portal to all federal, state and local government web resources and services.